Tracking 25372 objects as of 23-Jan-2022
HD Live streaming from Space Station
objects crossing your sky now

OPS 1570

Track OPS 1570 now!
OPS 1570 is classified as:


NORAD ID: 5851
Int'l Code: 1972-010A
Perigee: 35,899.0 km
Apogee: 35,962.8 km
Inclination: 3.8 °
Period: 1,443.1 minutes
Semi major axis: 42301 km
RCS: Unknown
Launch date: March 1, 1972
Source: United States (US)
Launch site: AIR FORCE EASTERN TEST RANGE (AFETR)
aabbcc
Your satellite tracking list
Your tracking list is empty




NASA's NSSDC Master Catalog

Two Line Element Set (TLE):
1  5851U 72010A   22022.85949524 -.00000242  00000-0  00000+0 0  9991
2  5851   3.7558 284.5945 0007539 346.6211 313.6772  0.99784473  9899
Source of the keplerian elements: McCants